DW7854 Weather Reports


time (UTC)temp
F
wind
direction
speed
knots
gust
knots
rain 1hr
in
rain 24hr
in
rain mn
in
humidity
%
barometer
mb
20260831170107 96 167 4.3 7.0 0.00 0.00 0.00 50 1016.4
20260831165902 96 163 3.5 7.0 0.00 0.00 0.00 50 1016.8
20260831165002 96 165 3.5 8.7 0.00 0.00 0.00 52 1016.8
20260831164613 95 166 2.6 7.0 0.00 0.00 0.00 52 1016.5
20260831164101 95 135 3.5 7.8 0.00 0.00 0.00 54 1016.9
20260831163202 94 169 3.5 7.8 0.00 0.00 0.00 52 1017.0
20260831163106 94 157 1.7 7.8 0.00 0.00 0.00 54 1016.7
20260831162305 94 163 3.5 7.0 0.00 0.00 0.00 54 1017.0
20260831161508 93 288 3.5 9.6 0.00 0.00 0.00 56 1016.8
20260831161401 94 169 4.3 8.7 0.00 0.00 0.00 56 1017.0
20260831160505 94 165 4.3 7.8 0.00 0.00 0.00 55 1017.0
20260831160012 94 168 3.5 7.0 0.00 0.00 0.00 56 1016.7
20260831155603 94 174 2.6 7.0 0.00 0.00 0.00 55 1017.0
20260831154702 93 177 1.7 6.1 0.00 0.00 0.00 58 1017.1
20260831154510 92 188 2.6 6.1 0.00 0.00 0.00 58 1016.6
20260831153801 92 154 1.7 4.3 0.00 0.00 0.00 59 1017.0
20260831153003 90 115 0.9 7.0 0.00 0.00 0.00 60 1016.6
20260831152901 91 154 2.6 7.0 0.00 0.00 0.00 60 1017.0
20260831152002 90 154 1.7 6.1 0.00 0.00 0.00 61 1017.0
20260831151504 89 181 0.9 5.2 0.00 0.00 0.00 63 1016.7
20260831151102 89 187 2.6 5.2 0.00 0.00 0.00 63 1017.0
20260831150107 88 300 1.7 5.2 0.00 0.00 0.00 63 1016.7
20260831145306 88 146 2.6 6.1 0.00 0.00 0.00 64 1017.1
20260831144612 87 158 3.5 6.1 0.00 0.00 0.00 64 1016.7
20260831143501 87 166 2.6 4.3 0.00 0.00 0.00 66 1016.9
20260831143003 86 184 1.7 4.3 0.00 0.00 0.00 66 1016.5
20260831142601 86 157 1.7 5.2 0.00 0.00 0.00 67 1016.9
20260831141701 86 177 2.6 4.3 0.00 0.00 0.00 68 1016.8
20260831141505 85 158 1.7 4.3 0.00 0.00 0.00 68 1016.5
20260831140802 85 168 2.6 4.3 0.00 0.00 0.00 69 1016.7
20260831140110 84 172 1.7 5.2 0.00 0.00 0.00 70 1016.3
20260831135901 84 179 2.6 5.2 0.00 0.00 0.00 70 1016.6
20260831134605 83 172 1.7 4.3 0.00 0.00 0.00 72 1016.4
20260831133201 81 167 1.7 4.3 0.00 0.00 0.00 75 1016.6
20260831133103 81 152 1.7 4.3 0.00 0.00 0.00 75 1016.3
20260831131605 78 142 0.9 1.7 0.00 0.00 0.00 79 1016.1
20260831131401 79 159 0.0 0.9 0.00 0.00 0.00 79 1016.3
20260831130501 78 169 0.9 2.6 0.00 0.00 0.00 79 1016.1
20260831130005 78 151 0.0 1.7 0.00 0.00 0.00 79 1015.8
20260831124503 77 106 0.0 0.9 0.00 0.00 0.00 79 1015.6
20260831123801 78 130 0.9 2.6 0.00 0.00 0.00 80 1015.8
20260831123107 77 130 0.0 0.9 0.00 0.00 0.00 79 1015.4
20260831122901 78 129 0.0 0.9 0.00 0.00 0.00 79 1015.7
20260831122001 78 130 0.0 1.7 0.00 0.00 0.00 79 1015.5
20260831121504 77 130 0.0 0.9 0.00 0.00 0.00 79 1015.3
20260831121101 78 130 0.0 1.7 0.00 0.00 0.00 79 1015.5
20260831120202 78 132 0.0 1.7 0.00 0.00 0.00 79 1015.4
20260831120108 77 130 0.0 1.7 0.00 0.00 0.00 79 1015.1
20260831115301 78 118 0.0 1.7 0.00 0.00 0.00 78 1015.3
20260831114511 77 105 0.0 1.7 0.00 0.00 0.00 78 1014.9
20260831113501 78 93 0.9 2.6 0.00 0.00 0.00 78 1015.2
20260831113002 77 124 0.9 3.5 0.00 0.00 0.00 78 1014.8
20260831112601 78 70 0.0 2.6 0.00 0.00 0.00 78 1015.1
20260831111701 78 82 0.0 1.7 0.00 0.00 0.00 78 1015.0
20260831111604 77 45 0.0 1.7 0.00 0.00 0.00 78 1014.7
20260831110802 78 144 0.0 1.7 0.00 0.00 0.00 78 1015.0
20260831110004 77 144 0.0 2.6 0.00 0.00 0.00 77 1014.7
20260831105001 78 63 0.9 1.7 0.00 0.00 0.00 77 1014.8
20260831104510 78 85 0.0 1.7 0.00 0.00 0.00 77 1014.4
20260831104101 78 56 0.0 1.7 0.00 0.00 0.00 77 1014.7
20260831103003 78 39 0.0 1.7 0.00 0.00 0.00 76 1014.5
20260831102305 78 74 0.0 0.9 0.00 0.00 0.00 76 1014.7
20260831101506 78 94 0.0 1.7 0.00 0.00 0.00 76 1014.5
20260831101401 78 105 0.0 1.7 0.00 0.00 0.00 76 1014.8
20260831100501 79 109 0.0 1.7 0.00 0.00 0.00 76 1014.7
20260831100006 78 125 0.0 1.7 0.00 0.00 0.00 75 1014.4
20260831094701 79 142 0.0 0.9 0.00 0.00 0.00 75 1014.6
20260831094508 78 143 0.0 0.9 0.00 0.00 0.00 75 1014.3
20260831093801 79 125 0.9 1.7 0.00 0.00 0.00 75 1014.5
20260831093005 78 121 0.9 3.5 0.00 0.00 0.00 75 1014.2
20260831092902 79 125 0.9 4.3 0.00 0.00 0.00 75 1014.4
20260831092001 79 133 0.9 2.6 0.00 0.00 0.00 75 1014.4
20260831091506 78 151 0.0 2.6 0.00 0.00 0.00 74 1014.2
20260831091101 79 129 0.9 2.6 0.00 0.00 0.00 74 1014.5
20260831090201 79 184 0.0 1.7 0.00 0.00 0.00 74 1014.5
20260831090007 79 187 0.0 1.7 0.00 0.00 0.00 74 1014.3
20260831085301 79 161 0.0 1.7 0.00 0.00 0.00 73 1014.5
20260831084503 79 134 0.0 0.9 0.00 0.00 0.00 73 1014.2
20260831084401 80 122 0.0 0.9 0.00 0.00 0.00 73 1014.5
20260831083501 80 136 0.0 1.7 0.00 0.00 0.00 73 1014.4
20260831083104 79 122 0.0 2.6 0.00 0.00 0.00 73 1014.1
20260831082601 80 150 0.0 2.6 0.00 0.00 0.00 72 1014.3
20260831081701 80 143 0.9 1.7 0.00 0.00 0.00 72 1014.3
20260831081607 80 138 0.0 2.6 0.00 0.00 0.00 72 1014.1
20260831080801 80 125 0.9 2.6 0.00 0.00 0.00 72 1014.3
20260831080003 80 124 0.0 4.3 0.00 0.00 0.00 72 1014.1
20260831075001 80 126 1.7 3.5 0.00 0.00 0.00 72 1014.4
20260831074605 80 141 0.9 3.5 0.00 0.00 0.00 72 1014.1
20260831074101 80 137 0.9 3.5 0.00 0.00 0.00 72 1014.4
20260831073201 80 121 0.9 3.5 0.00 0.00 0.00 72 1014.4
20260831073013 80 131 0.0 3.5 0.00 0.00 0.00 72 1014.1
20260831072301 81 111 0.9 3.5 0.00 0.00 0.00 72 1014.4
20260831071503 80 86 0.9 3.5 0.00 0.00 0.00 72 1014.1
20260831071401 81 110 0.9 4.3 0.00 0.00 0.00 72 1014.4
20260831070021 81 126 0.9 4.3 0.00 0.00 0.00 71 1014.2
20260831065601 81 134 0.9 3.5 0.00 0.00 0.00 71 1014.4
20260831064701 82 118 0.9 4.3 0.00 0.00 0.00 70 1014.4
20260831064504 81 109 0.0 4.3 0.00 0.00 0.00 70 1014.2
20260831063008 82 137 0.0 2.6 0.00 0.00 0.00 69 1014.2
20260831062901 82 126 0.9 2.6 0.00 0.00 0.00 69 1014.5
20260831062001 82 129 0.9 5.2 0.00 0.00 0.00 69 1014.6
20260831061610 82 79 0.9 5.2 0.00 0.00 0.00 69 1014.3
20260831061101 82 127 1.7 5.2 0.00 0.00 0.00 68 1014.6
20260831060201 82 128 1.7 5.2 0.00 0.00 0.00 68 1014.6
20260831060112 82 123 1.7 5.2 0.00 0.00 0.00 68 1014.3
20260831055301 82 133 1.7 6.1 0.00 0.00 0.00 68 1014.4
20260831054603 82 155 0.9 6.1 0.00 0.00 0.00 68 1014.1
20260831054401 83 140 2.6 6.1 0.00 0.00 0.00 68 1014.3
20260831053005 83 132 1.7 6.1 0.00 0.00 0.00 68 1014.0
20260831052601 83 135 2.6 6.1 0.00 0.00 0.00 68 1014.2
20260831051606 83 117 2.6 7.0 0.00 0.00 0.00 68 1014.0
20260831050801 83 143 2.6 6.1 0.00 0.00 0.00 68 1014.0
20260831050104 83 144 2.6 6.1 0.00 0.00 0.00 68 1013.8
20260831045901 84 135 2.6 5.2 0.00 0.00 0.00 67 1014.1
20260831045001 84 140 2.6 6.1 0.00 0.00 0.00 67 1014.1
20260831044505 83 138 2.6 6.1 0.00 0.00 0.00 67 1013.9
20260831044101 84 143 2.6 4.3 0.00 0.00 0.00 67 1014.1
20260831043201 84 130 2.6 6.1 0.00 0.00 0.00 66 1014.0
20260831043105 83 128 1.7 6.1 0.00 0.00 0.00 66 1013.8
20260831042301 84 129 1.7 6.1 0.00 0.00 0.00 66 1014.1
20260831041522 83 96 1.7 4.3 0.00 0.00 0.00 65 1013.8
20260831040003 83 128 2.6 7.0 0.00 0.00 0.00 65 1013.6
20260831035601 82 123 1.7 4.3 0.00 0.00 0.00 65 1013.8
20260831034701 82 124 0.9 4.3 0.00 0.00 0.00 66 1013.8
20260831034607 81 138 1.7 6.1 0.00 0.00 0.00 66 1013.5
20260831033801 82 120 0.9 2.6 0.00 0.00 0.00 65 1013.7
20260831033105 81 56 0.0 1.7 0.00 0.00 0.00 65 1013.3
20260831031604 81 49 0.0 0.9 0.00 0.00 0.00 63 1013.2
20260831031101 82 0 0.0 0.0 0.00 0.00 0.00 63 1013.4
20260831030201 82 0 0.0 0.0 0.00 0.00 0.00 61 1013.3
20260831030003 82 49 0.0 0.0 0.00 0.00 0.00 60 1013.1
20260831025301 82 0 0.0 0.0 0.00 0.00 0.00 59 1013.2
20260831024510 82 49 0.0 0.0 0.00 0.00 0.00 58 1012.9
20260831024401 83 0 0.0 0.0 0.00 0.00 0.00 58 1013.1
20260831023501 83 0 0.0 0.0 0.00 0.00 0.00 57 1013.0
20260831023004 82 49 0.0 0.0 0.00 0.00 0.00 56 1012.8
20260831021701 83 0 0.0 0.0 0.00 0.00 0.00 57 1012.8
20260831021605 83 49 0.0 0.0 0.00 0.00 0.00 58 1012.6
20260831020801 84 0 0.0 0.0 0.00 0.00 0.00 56 1012.7
20260831020012 83 49 0.0 0.0 0.00 0.00 0.00 55 1012.3
20260831015901 84 0 0.0 0.0 0.00 0.00 0.00 55 1012.5
20260831015001 85 49 0.0 0.9 0.00 0.00 0.00 55 1012.4
20260831014609 85 49 0.0 1.7 0.00 0.00 0.00 55 1012.1
20260831014101 86 50 0.9 1.7 0.00 0.00 0.00 55 1012.4
20260831013201 86 49 0.9 2.6 0.00 0.00 0.00 52 1012.3
20260831013111 86 49 0.9 2.6 0.00 0.00 0.00 51 1012.1
20260831012305 87 50 0.9 1.7 0.00 0.00 0.00 50 1012.2
20260831011507 88 49 0.9 1.7 0.00 0.00 0.00 48 1012.0
20260831011401 88 49 0.9 1.7 0.00 0.00 0.00 48 1012.2
20260831010122 90 49 0.0 1.7 0.00 0.00 0.00 45 1011.9
20260831004701 92 0 0.0 0.0 0.00 0.00 0.00 42 1012.1
20260831004503 92 44 0.0 0.0 0.00 0.00 0.00 41 1012.0
20260831003801 93 45 0.0 0.9 0.00 0.00 0.00 41 1012.2
20260831003003 93 44 0.0 0.9 0.00 0.00 0.00 40 1012.0
20260831002901 94 44 0.0 0.9 0.00 0.00 0.00 40 1012.2
20260831002001 94 154 0.0 1.7 0.00 0.00 0.00 39 1012.3
20260831001509 94 158 0.0 2.6 0.00 0.00 0.00 38 1012.0
20260831001101 95 144 0.9 2.6 0.00 0.00 0.00 39 1012.2
20260831000203 95 141 0.9 2.6 0.00 0.00 0.00 38 1012.1
20260831000116 95 124 0.9 2.6 0.00 0.00 0.00 37 1011.9
20260830235301 96 151 1.7 3.5 0.00 0.00 0.00 36 1012.1
20260830234606 96 153 1.7 3.5 0.00 0.00 0.00 35 1012.0
20260830234401 96 148 1.7 6.1 0.00 0.00 0.00 35 1012.3
20260830233501 97 148 1.7 6.1 0.00 0.00 0.00 34 1012.2
20260830233103 97 136 1.7 5.2 0.00 0.00 0.00 34 1012.0
20260830232601 98 148 3.5 6.1 0.00 0.00 0.00 33 1012.1
20260830231701 99 150 3.5 6.1 0.00 0.00 0.00 31 1012.2
20260830231508 98 155 2.6 6.1 0.00 0.00 0.00 31 1012.0
20260830230801 99 136 2.6 5.2 0.00 0.00 0.00 30 1012.2
20260830230005 99 145 2.6 7.0 0.00 0.00 0.00 31 1011.9
20260830225901 99 106 2.6 7.0 0.00 0.00 0.00 31 1012.2
20260830224504 100 96 1.7 7.0 0.00 0.00 0.00 32 1012.0
20260830224101 100 126 3.5 7.0 0.00 0.00 0.00 32 1012.2
20260830223201 101 127 3.5 7.8 0.00 0.00 0.00 31 1012.2
20260830223003 100 147 3.5 7.8 0.00 0.00 0.00 30 1012.0
20260830222301 101 94 1.7 7.0 0.00 0.00 0.00 29 1012.2
20260830221606 100 101 0.9 6.1 0.00 0.00 0.00 28 1011.9
20260830221401 101 110 1.7 6.1 0.00 0.00 0.00 30 1012.1
20260830220501 101 129 2.6 6.1 0.00 0.00 0.00 30 1012.2
20260830220003 101 123 2.6 6.1 0.00 0.00 0.00 29 1012.0
20260830214606 100 102 0.9 7.8 0.00 0.00 0.00 25 1012.1
20260830213104 101 120 3.5 9.6 0.00 0.00 0.00 29 1012.3
20260830212901 101 156 4.3 9.6 0.00 0.00 0.00 28 1012.5
20260830212001 102 137 3.5 7.0 0.00 0.00 0.00 29 1012.7
20260830211607 102 67 2.6 7.0 0.00 0.00 0.00 29 1012.6
20260830210201 102 159 2.6 9.6 0.00 0.00 0.00 30 1012.8
20260830210004 101 159 1.7 5.2 0.00 0.00 0.00 28 1012.5
20260830205301 101 136 4.3 7.8 0.00 0.00 0.00 25 1013.0
20260830204605 101 146 3.5 7.8 0.00 0.00 0.00 28 1012.9
20260830204401 102 168 4.3 7.0 0.00 0.00 0.00 29 1013.1
20260830203501 102 179 3.5 7.8 0.00 0.00 0.00 32 1013.3
20260830203003 101 192 2.6 7.0 0.00 0.00 0.00 37 1013.1
20260830202601 101 171 3.5 6.1 0.00 0.00 0.00 36 1013.4
20260830201605 101 153 3.5 7.0 0.00 0.00 0.00 38 1013.1
20260830200801 100 194 2.6 7.8 0.00 0.00 0.00 40 1013.6
20260830200006 100 225 3.5 10.4 0.00 0.00 0.00 39 1013.5
20260830195901 101 170 4.3 10.4 0.00 0.00 0.00 40 1013.7
20260830194609 99 179 0.9 6.1 0.00 0.00 0.00 43 1013.5
20260830194101 99 153 1.7 6.1 0.00 0.00 0.00 42 1013.8
20260830193201 100 187 2.6 6.1 0.00 0.00 0.00 42 1014.0
20260830193004 99 186 2.6 6.1 0.00 0.00 0.00 43 1013.7
20260830192301 99 196 2.6 8.7 0.00 0.00 0.00 43 1014.1
20260830191505 99 247 3.5 8.7 0.00 0.00 0.00 45 1013.8
20260830191401 99 165 2.6 8.7 0.00 0.00 0.00 45 1014.2
20260830190501 98 175 1.7 7.0 0.00 0.00 0.00 44 1014.2
20260830190106 98 101 1.7 7.0 0.00 0.00 0.00 45 1014.0
20260830185601 98 212 2.6 6.1 0.00 0.00 0.00 45 1014.3
20260830184701 99 166 3.5 6.1 0.00 0.00 0.00 45 1014.5
20260830184618 98 164 2.6 7.0 0.00 0.00 0.00 44 1014.2
20260830183801 98 166 4.3 7.8 0.00 0.00 0.00 44 1014.6
20260830183004 97 199 2.6 8.7 0.00 0.00 0.00 48 1014.4
20260830182901 98 162 3.5 8.7 0.00 0.00 0.00 49 1014.6
20260830182001 98 171 3.5 8.7 0.00 0.00 0.00 46 1014.7
20260830181505 97 159 4.3 8.7 0.00 0.00 0.00 48 1014.5
20260830181101 97 157 2.6 7.0 0.00 0.00 0.00 47 1014.8
20260830180201 97 173 3.5 7.8 0.00 0.00 0.00 49 1014.8
20260830180104 97 174 2.6 7.8 0.00 0.00 0.00 49 1014.5
20260830175301 97 165 3.5 8.7 0.00 0.00 0.00 46 1014.9
20260830174538 96 162 5.2 8.7 0.00 0.00 0.00 50 1014.7
20260830174401 96 184 1.7 7.0 0.00 0.00 0.00 53 1015.0
20260830173501 96 184 2.6 7.0 0.00 0.00 0.00 51 1015.1
20260830173107 95 173 3.5 7.0 0.00 0.00 0.00 52 1015.0
20260830172601 95 183 2.6 6.1 0.00 0.00 0.00 52 1015.2
20260830171701 95 170 4.3 7.8 0.00 0.00 0.00 53 1015.4
20260830171510 94 153 4.3 7.8 0.00 0.00 0.00 53 1015.2